126  
ASUS43 KDTX 190810  
RWRMI  
MICHIGAN HOURLY REGIONAL WEATHER ROUNDUP  
NATIONAL WEATHER SERVICE DETROIT/PONTIAC MI  
400 AM EDT TUE MAR 19 2019  
 
NOTE: "FAIR" INDICATES FEW OR NO CLOUDS BELOW 12,000 FEET WITH NO  
SIGNIFICANT WEATHER AND/OR TO VISIBILITY
.  
 
MIZ047>049-052>055-059>063-066>070-074>076-081>083-190900-  
SOUTHEAST LOWER MICHIGAN  
 
CITY SKY/WX TMP DP RH WIND PRES REMARKS
 
ADRIAN FAIR 29 23 78 CALM 30.37F  
ALMA FAIR 29 21 72 SW5 30.36S WCI 24  
ANN ARBOR FAIR 22 20 92 CALM 30.36S  
BAD AXE FAIR 28 26 94 CALM 30.33S  
CARO FAIR 25 23 91 CALM 30.34F  
DETROIT CITY FAIR 31 19 61 W6 30.36F WCI 25  
DETROIT FAIR 28 19 69 S5 30.37S WCI 23  
FLINT FAIR 25 20 81 SW3 30.36S  
GROSSE ILE FAIR 31 23 73 W3 30.36S  
HILLSDALE FAIR 27 22 82 CALM 30.34F  
HOWELL FAIR 27 22 80 SW3 30.35F  
 
CITY SKY/WX TMP DP RH WIND PRES REMARKS
 
JACKSON FAIR 25 22 88 CALM 30.35F  
LAMBERTVILLE CLOUDY 32 27 81 CALM 30.37F  
LANSING FAIR 26 23 88 CALM 30.36F  
LAPEER FAIR 28 25 89 CALM 30.35F  
MASON FAIR 28 25 88 SE3 30.35F  
MONROE MOCLDY 31 27 86 CALM 30.37S  
MT. CLEMENS FAIR 31 20 65 W5 30.34F WCI 26  
PONTIAC FAIR 26 23 88 W6 30.33F WCI 19  
PORT HOPE N/A 27 24 89 SW5 30.31F WCI 22  
PORT HURON FAIR 25 23 93 CALM 30.35F  
TRI CITIES FAIR 30 22 72 SW6 30.35F WCI 24  
MIDLAND FAIR 25 22 89 CALM 30.34F  
TROY FAIR 32 18 56 W3 30.37F  
SAGINAW HB FAIR 32 27 80 SW6 30.35S WCI 26  

 
MIZ043>046-050>051-056>058-064>065-071>073-077>080-190900-  
SOUTHWEST LOWER MICHIGAN  
 
CITY SKY/WX TMP DP RH WIND PRES REMARKS
 
BATTLE CREEK FAIR 24 19 81 S3 30.35F  
BENTON HARBOR FAIR 26 22 84 CALM 30.36F  
BIG RAPIDS FAIR 25 23 92 CALM 30.32F  
COLDWATER FAIR 27 26 98 CALM 30.36S  
FREMONT FAIR 27 27 100 CALM 30.34F FOG  
HOLLAND FAIR 29 23 78 S3 30.35F  
GRAND RAPIDS FAIR 24 19 81 S3 30.35F  
IONIA FAIR 28 22 76 SW3 30.35S  
KALAMAZOO MOCLDY 25 21 85 CALM 30.35F  
LUDINGTON FAIR 27 24 89 CALM 30.33F  
MARSHALL FAIR 25 24 96 CALM 30.35F  
MOUNT PLEASANT FAIR 30 22 72 SW3 30.34S  
MUSKEGON FAIR 26 22 84 SE3 30.35F FOG  
SOUTH HAVEN FAIR 25 22 90 CALM 30.36F  

 
MIZ016>042-190900-  
NORTHERN LOWER MICHIGAN  
 
CITY SKY/WX TMP DP RH WIND PRES REMARKS
 
ALPENA CLOUDY 29 20 69 SW3 30.30F  
BEAVER ISLAND CLOUDY 27 26 96 CALM 30.28F  
BELLAIRE FAIR 25 20 82 CALM 30.31F  
CADILLAC FAIR 19 17 95 CALM 30.28F  
CHARLEVOIX CLOUDY 30 21 69 S5 30.32F WCI 25  
FRANKFORT FAIR 32 27 81 CALM 30.32S  
GAYLORD FAIR 23 12 62 SW3 30.26F  
GRAYLING N/A 17 14 87 CALM 30.28F  
HARBOR SPRINGS MOCLDY 27 25 92 CALM 30.29F  
HOUGHTON LAKE FAIR 25 17 72 SW5 30.30F WCI 19  
MANISTEE FAIR 23 21 92 E3 30.33S FOG  
OSCODA CLOUDY 25 23 94 SW5 30.31F WCI 19  
PELLSTON MOCLDY 19 16 88 CALM 30.29F  
ROGERS CITY MOCLDY 24 21 88 CALM 30.30F  
TRAVERSE CITY FAIR 28 23 81 CALM 30.30F  

 
MIZ007>008-015-190900-  
EASTERN UPPER MICHIGAN  
 
CITY SKY/WX TMP DP RH WIND PRES REMARKS
 
KINROSS FAIR 13 11 92 CALM 30.29S  
MACKINAC ISLAN MOCLDY 24 24 100 CALM 30.29S  
NEWBERRY CLOUDY 20 18 92 S3 30.27S  
S. S. MARIE FAIR 17 13 84 E3 30.29S  
MUNISING N/A 29 23 78 S6 30.26F WCI 23  

 
MIZ004>006-011>014-085-190900-  
CENTRAL UPPER MICHIGAN  
 
CITY SKY/WX TMP DP RH WIND PRES REMARKS
 
MANISTIQUE CLOUDY 27 22 80 CALM 30.27S  
ESCANABA CLOUDY 23 21 92 CALM 30.28  
MENOMINEE MOCLDY 31 23 72 W3 30.30F  
SAWYER-GWINN FAIR 26 21 80 S5 30.23S WCI 20  

 
MIZ001>003-009>011-084-190900-  
WESTERN UPPER MICHIGAN  
 
CITY SKY/WX TMP DP RH WIND PRES REMARKS
 
IRON MOUNTAIN MOCLDY 26 20 77 CALM 30.24S  
HOUGHTON MOCLDY 24 17 74 CALM 30.20F  
COPPER HARBOR N/A 31 27 85 SW7 30.22F WCI 24  
IRONWOOD FAIR 29 21 72 SW8 30.23S WCI 21  

 
 
ABBREVIATIONS USED IN REMARKS  
TC - TEMPERATURE IN CELSIUS  
WCI - WIND CHILL INDEX  
HX - HEAT INDEX  
VSB - VISIBILITY  
 
 
 
CLICK HERE TO GO TO PREVIOUS BULLETINS.

The Nexlab MI Page Main Text Page